Weather History for Lafayette, LA

Change the Weather History Date:

Wednesday, January 23, 2013

  Actual Average Record
Temperature  
Mean Temperature 58 °F 53 °F  
Max Temperature 70 °F 62 °F 83 °F (1933)
Min Temperature 45 °F 43 °F 19 °F (1948)
Degree Days  
Heating Degree Days 7 13  
Month to date heating degree days 290 299  
Since 1 July heating degree days 780 853  
Growing Degree Days 8 (Base 50)    
Moisture  
Dew Point 50 °F    
Average Humidity 74    
Maximum Humidity 100    
Minimum Humidity 47    
Precipitation  
Precipitation 0.00 in 0.18 in 3.75 in (1932)
Month to date precipitation 10.43 4.24  
Year to date precipitation 10.43 4.24  
Snow  
Snow 0.00 in 0.00 in 2.20 in (1948)
Month to date snowfall 0.0 0.0  
Since 1 July snowfall 0.0 0.0  
Snow Depth 0.00 in    
Sea Level Pressure  
Sea Level Pressure 30.33 in    
Wind  
Wind Speed 5 mph (South)    
Max Wind Speed 14 mph    
Max Gust Speed 18 mph    
Visibility 7 miles    
Events Fog    
T = Trace of Precipitation, MM = Missing Value Source: NWS Daily Summary

Daily Weather History Graph

Daily Weather History Graph

Search for Another Location

Airport:

Trip Planner

Search our weather history database for the weather conditions in past years. The results will help you decide how hot, cold, wet, or windy it might be!

Date:

Astronomy

Jan. 23, 2013 Rise Set
Actual Time 7:02 AM CST 5:37 PM CST
Civil Twilight 6:37 AM CST 6:02 PM CST
Nautical Twilight 6:08 AM CST 6:31 PM CST
Astronomical Twilight 5:39 AM CST 7:00 PM CST
Moon 2:51 PM CST (1/23) 4:11 AM CST (1/23)
Length of Visible Light 11h 25m
Length of Day
10h 34m
Waxing Gibbous, 89% of the Moon is Illuminated
Jan 23
Waxing Gibbous
Jan 26
Full
Feb 3
Last Quarter
Feb 10
New
Feb 17
First Quarter

Hourly Weather History & Observations

Time (CST) Temp. Dew Point Humidity Pressure Visibility Wind Dir Wind Speed Gust Speed Precip Events Conditions
12:53 AM 51.1 °F 48.0 °F 89% 30.33 in 6.0 mi South 4.6 mph - N/A   Clear
1:53 AM 51.1 °F 48.0 °F 89% 30.33 in 8.0 mi SSE 4.6 mph - N/A   Clear
2:53 AM 50.0 °F 46.9 °F 89% 30.33 in 6.0 mi Calm Calm - N/A   Clear
3:53 AM 48.9 °F 46.9 °F 93% 30.33 in 5.0 mi Calm Calm - 0.01 in   Clear
4:53 AM 48.9 °F 46.9 °F 93% 30.33 in 4.0 mi Calm Calm - N/A   Clear
5:53 AM 48.0 °F 46.9 °F 96% 30.34 in 2.5 mi Calm Calm - N/A   Clear
6:04 AM 48.2 °F 46.4 °F 93% 30.34 in 1.5 mi Calm Calm - N/A   Clear
6:50 AM 48.2 °F 46.4 °F 93% 30.35 in 0.5 mi Calm Calm - N/A Fog Fog
6:53 AM 46.9 °F 46.0 °F 97% 30.36 in 0.2 mi Calm Calm - N/A Fog Fog
7:44 AM 46.4 °F 46.4 °F 100% 30.36 in 3.0 mi Calm Calm - N/A Fog Shallow Fog
7:53 AM 50.0 °F 48.0 °F 93% 30.37 in 3.0 mi Calm Calm - N/A   Clear
8:53 AM 55.0 °F 51.1 °F 86% 30.38 in 6.0 mi South 4.6 mph - N/A   Clear
9:53 AM 61.0 °F 50.0 °F 67% 30.39 in 10.0 mi South 4.6 mph - N/A   Clear
10:53 AM 64.9 °F 51.1 °F 61% 30.39 in 10.0 mi SSW 10.4 mph - N/A   Clear
11:53 AM 66.9 °F 52.0 °F 59% 30.36 in 10.0 mi SSW 10.4 mph - N/A   Clear
12:53 PM 70.0 °F 48.9 °F 47% 30.33 in 10.0 mi WSW 11.5 mph - N/A   Clear
1:53 PM 70.0 °F 50.0 °F 49% 30.32 in 10.0 mi SW 8.1 mph - N/A   Clear
2:53 PM 70.0 °F 52.0 °F 53% 30.30 in 10.0 mi SW 10.4 mph - N/A   Partly Cloudy
3:53 PM 69.1 °F 52.0 °F 54% 30.31 in 10.0 mi SSW 11.5 mph - N/A   Scattered Clouds
4:53 PM 66.0 °F 52.0 °F 60% 30.30 in 10.0 mi South 12.7 mph - N/A   Partly Cloudy
5:53 PM 63.0 °F 52.0 °F 67% 30.30 in 10.0 mi South 5.8 mph - N/A   Clear
6:53 PM 60.1 °F 53.1 °F 78% 30.30 in 10.0 mi South 5.8 mph - N/A   Clear
7:53 PM 57.9 °F 53.1 °F 84% 30.30 in 10.0 mi South 4.6 mph - N/A   Clear
8:53 PM 57.0 °F 53.1 °F 87% 30.30 in 10.0 mi South 5.8 mph - N/A   Clear
9:53 PM 57.0 °F 53.1 °F 87% 30.30 in 10.0 mi South 3.5 mph - N/A   Clear
10:53 PM 55.9 °F 52.0 °F 87% 30.31 in 10.0 mi Calm Calm - N/A   Clear
11:53 PM 55.0 °F 52.0 °F 89% 30.29 in 8.0 mi South 5.8 mph - N/A   Clear